EW0814 Weather Reports


Display with metric or nautical units.
time (UTC)temp
F
wind
direction
speed
MPH
gust
MPH
rain 1hr
in
rain 24hr
in
rain mn
in
humidity
%
barometer
mb
20190216154504 27 23 4.0 3.0 0.00 0.00 0.00 66 1005.9
20190216154003 28 23 4.0 3.0 0.00 0.00 0.00 64 1005.9
20190216153503 28 15 4.0 5.0 0.00 0.00 0.00 66 1005.9
20190216153004 28 27 3.0 5.0 0.00 0.00 0.00 66 1005.9
20190216152504 28 57 3.0 5.0 0.00 0.00 0.00 64 1005.9
20190216152003 28 250 3.0 6.0 0.00 0.00 0.00 67 1005.9
20190216151504 27 265 4.0 6.0 0.00 0.00 0.00 67 1005.9
20190216151003 27 352 4.0 6.0 0.00 0.00 0.00 67 1005.9
20190216150503 27 29 4.0 6.0 0.00 0.00 0.00 68 1005.9
20190216150004 26 26 3.0 5.0 0.00 0.00 0.00 68 1005.9
20190216145503 26 23 3.0 10.0 0.00 0.00 0.00 69 1005.9
20190216145003 25 11 3.0 10.0 0.00 0.00 0.00 69 1005.9
20190216144503 25 228 3.0 4.0 0.00 0.00 0.00 72 1005.9
20190216144004 24 178 4.0 5.0 0.00 0.00 0.00 70 1005.9
20190216143503 24 87 3.0 5.0 0.00 0.00 0.00 72 1007.0
20190216143005 24 28 3.0 5.0 0.00 0.00 0.00 72 1007.0
20190216142503 24 16 3.0 6.0 0.00 0.00 0.00 70 1007.0
20190216142004 25 313 2.0 6.0 0.00 0.00 0.00 72 1007.0
20190216141503 26 30 2.0 6.0 0.00 0.00 0.00 73 1007.0
20190216141003 26 69 3.0 4.0 0.00 0.00 0.00 76 1007.0
20190216140504 26 97 3.0 4.0 0.00 0.00 0.00 73 1007.0
20190216140003 25 118 2.0 3.0 0.00 0.00 0.00 74 1007.0
20190216135503 26 120 1.0 3.0 0.00 0.00 0.00 82 1007.0
20190216135003 26 120 2.0 4.0 0.00 0.00 0.00 82 1007.0
20190216134504 25 117 2.0 4.0 0.00 0.00 0.00 82 1007.0
20190216134003 24 137 2.0 3.0 0.00 0.00 0.00 81 1007.0
20190216133504 24 240 3.0 3.0 0.00 0.00 0.00 84 1007.0
20190216133004 24 275 3.0 3.0 0.00 0.00 0.00 84 1007.0
20190216132503 24 291 4.0 7.0 0.00 0.00 0.00 84 1007.0
20190216132003 23 314 3.0 7.0 0.00 0.00 0.00 82 1007.0
20190216131504 23 50 3.0 4.0 0.00 0.00 0.00 85 1007.0
20190216131003 23 68 2.0 4.0 0.00 0.00 0.00 86 1007.0
20190216130503 23 68 1.0 4.0 0.00 0.00 0.00 86 1005.9
20190216130004 23 45 1.0 3.0 0.00 0.00 0.00 90 1005.9
20190216125504 23 45 2.0 3.0 0.00 0.00 0.00 90 1005.9
20190216125003 22 47 3.0 4.0 0.00 0.00 0.00 90 1005.9
20190216124505 22 48 3.0 4.0 0.00 0.00 0.00 91 1005.9
20190216124004 21 81 4.0 5.0 0.00 0.00 0.00 90 1005.9
20190216123503 21 115 5.0 6.0 0.00 0.00 0.00 90 1005.9
20190216123003 21 123 4.0 6.0 0.00 0.00 0.00 88 1005.9
20190216122504 21 161 3.0 6.0 0.00 0.00 0.00 88 1005.9
20190216122004 21 347 3.0 6.0 0.00 0.00 0.00 88 1005.9
20190216121504 21 62 3.0 6.0 0.00 0.00 0.00 90 1005.9
20190216121004 21 79 2.0 6.0 0.00 0.00 0.00 91 1005.9
20190216120503 21 75 2.0 3.0 0.00 0.00 0.00 92 1004.9
20190216120004 20 55 2.0 3.0 0.00 0.00 0.00 91 1004.9
20190216115504 20 315 2.0 3.0 0.00 0.00 0.00 91 1004.9
20190216115003 20 72 2.0 4.0 0.00 0.00 0.00 91 1005.9
20190216114503 20 68 3.0 4.0 0.00 0.00 0.00 91 1005.9
20190216114004 20 71 3.0 4.0 0.00 0.00 0.00 91 1005.9
20190216113503 20 68 2.0 4.0 0.00 0.00 0.00 90 1004.9
20190216113003 20 49 2.0 4.0 0.00 0.00 0.00 88 1004.9
20190216112504 21 36 2.0 5.0 0.00 0.00 0.00 90 1004.9
20190216112004 21 18 2.0 5.0 0.00 0.00 0.00 90 1005.9
20190216111503 21 310 2.0 3.0 0.00 0.00 0.00 90 1005.9
20190216111004 21 358 3.0 5.0 0.00 0.00 0.00 90 1005.9
20190216110503 21 20 4.0 5.0 0.00 0.00 0.00 88 1005.9
20190216110003 21 18 3.0 5.0 0.00 0.00 0.00 88 1005.9
20190216105504 22 335 3.0 5.0 0.00 0.00 0.00 88 1005.9
20190216105003 22 300 3.0 3.0 0.00 0.00 0.00 90 1005.9
20190216104503 22 322 4.0 6.0 0.00 0.00 0.00 90 1005.9
20190216104005 22 331 4.0 6.0 0.00 0.00 0.00 90 1005.9
20190216103503 22 352 3.0 6.0 0.00 0.00 0.00 90 1004.9
20190216103003 22 348 3.0 4.0 0.00 0.00 0.00 91 1004.9
20190216102504 22 343 3.0 5.0 0.00 0.00 0.00 91 1004.9
20190216102003 22 338 3.0 5.0 0.00 0.00 0.00 92 1004.9
20190216101503 22 320 3.0 5.0 0.00 0.00 0.00 93 1004.9
20190216101004 22 306 3.0 6.0 0.00 0.00 0.00 93 1004.9
20190216100503 23 318 3.0 6.0 0.00 0.00 0.00 93 1004.9
20190216100003 23 335 2.0 4.0 0.00 0.00 0.00 96 1004.9
20190216095504 23 344 1.0 4.0 0.00 0.00 0.00 97 1004.9
20190216095003 23 30 1.0 2.0 0.00 0.00 0.00 98 1004.9
20190216094504 23 12 1.0 2.0 0.00 0.00 0.00 99 1004.9
20190216094004 23 7 1.0 2.0 0.00 0.00 0.00 98 1004.9
20190216093503 23 45 1.0 2.0 0.00 0.00 0.00 97 1003.8
20190216093004 23 36 2.0 3.0 0.00 0.00 0.00 96 1003.8
20190216092504 23 28 3.0 4.0 0.00 0.00 0.00 96 1003.8
20190216092003 23 25 1.0 4.0 0.00 0.00 0.00 96 1004.9
20190216091504 23 33 1.0 3.0 0.00 0.00 0.00 97 1004.9
20190216091004 22 89 2.0 3.0 0.00 0.00 0.00 97 1004.9
20190216090503 23 132 3.0 3.0 0.00 0.00 0.00 98 1004.9
20190216090003 23 154 2.0 4.0 0.00 0.00 0.00 98 1004.9
20190216085504 23 114 2.0 4.0 0.00 0.00 0.00 98 1004.9
20190216085004 24 81 2.0 4.0 0.00 0.00 0.00 98 1004.9
20190216084503 24 33 1.0 3.0 0.00 0.00 0.00 98 1004.9
20190216084004 24 290 2.0 3.0 0.00 0.00 0.00 97 1004.9
20190216083503 25 253 2.0 3.0 0.00 0.00 0.00 97 1004.9
20190216083004 25 321 2.0 3.0 0.00 0.00 0.00 98 1004.9
20190216082504 25 345 2.0 3.0 0.00 0.00 0.00 99 1004.9
20190216082003 25 314 1.0 2.0 0.00 0.00 0.00 100 1004.9
20190216081503 26 257 1.0 2.0 0.00 0.00 0.00 100 1004.9
20190216081003 26 234 1.0 2.0 0.00 0.00 0.00 99 1004.9
20190216080504 26 269 1.0 3.0 0.00 0.00 0.00 99 1004.9
20190216080003 26 264 3.0 4.0 0.00 0.00 0.00 99 1004.9
20190216075504 26 279 3.0 4.0 0.00 0.00 0.00 99 1004.9
20190216075004 26 309 3.0 4.0 0.00 0.00 0.00 99 1004.9
20190216074503 26 297 2.0 2.0 0.00 0.00 0.00 99 1004.9
20190216074003 26 300 2.0 2.0 0.00 0.00 0.00 100 1004.9
20190216073504 26 45 3.0 2.0 0.00 0.00 0.00 100 1004.9
20190216073003 26 45 3.0 2.0 0.00 0.00 0.00 100 1004.9
20190216072503 26 45 3.0 2.0 0.00 0.00 0.00 100 1004.9
20190216072004 27 46 2.0 2.0 0.00 0.00 0.00 99 1003.8
20190216071504 26 225 2.0 2.0 0.00 0.00 0.00 98 1003.8
20190216071003 27 225 2.0 2.0 0.00 0.00 0.00 99 1003.8
20190216070504 27 225 2.0 2.0 0.00 0.00 0.00 99 1004.9
20190216070004 27 225 1.0 2.0 0.00 0.00 0.00 99 1004.9
20190216065503 27 225 0.0 2.0 0.00 0.00 0.00 99 1004.9
20190216065004 27 225 0.0 1.0 0.00 0.00 0.00 99 1004.9
20190216064504 27 225 0.0 1.0 0.00 0.00 0.00 99 1004.9
20190216064003 27 225 0.0 1.0 0.00 0.00 0.00 99 1004.9
20190216063504 26 225 0.0 1.0 0.00 0.00 0.00 100 1003.8
20190216063003 26 90 2.0 3.0 0.00 0.00 0.00 100 1003.8
20190216062503 26 90 2.0 3.0 0.00 0.00 0.00 99 1003.8
20190216062004 26 90 2.0 3.0 0.00 0.00 0.00 99 1004.9
20190216061504 26 90 2.0 3.0 0.00 0.00 0.00 98 1004.9
20190216061003 26 90 2.0 3.0 0.00 0.00 0.00 97 1004.9
20190216060504 27 181 2.0 3.0 0.00 0.00 0.00 97 1003.8
20190216060004 27 181 2.0 3.0 0.00 0.00 0.00 97 1003.8
20190216055503 27 181 2.0 3.0 0.00 0.00 0.00 97 1003.8
20190216055003 27 181 2.0 3.0 0.00 0.00 0.00 97 1003.8
20190216054504 27 181 3.0 4.0 0.00 0.00 0.00 98 1003.8
20190216054003 28 181 3.0 5.0 0.00 0.00 0.00 98 1003.8
20190216053503 28 181 3.0 5.0 0.00 0.00 0.00 98 1003.8
20190216053004 28 181 2.0 4.0 0.00 0.00 0.00 99 1003.8
20190216052503 28 181 3.0 4.0 0.00 0.00 0.00 100 1003.8
20190216052004 28 181 3.0 4.0 0.00 0.00 0.00 100 1003.8
20190216051504 29 181 2.0 4.0 0.00 0.00 0.00 100 1003.8
20190216051003 29 181 2.0 4.0 0.00 0.00 0.00 100 1003.8
20190216050503 29 181 2.0 2.0 0.00 0.00 0.00 100 1002.8
20190216050004 29 181 2.0 4.0 0.00 0.00 0.00 100 1002.8
20190216045504 29 181 2.0 4.0 0.00 0.00 0.00 100 1002.8
20190216045005 29 181 2.0 4.0 0.00 0.00 0.00 100 1001.7
20190216044503 29 181 2.0 3.0 0.00 0.00 0.00 100 1001.7
20190216044004 29 181 2.0 2.0 0.00 0.00 0.00 100 1001.7
20190216043503 29 181 2.0 3.0 0.00 0.00 0.00 100 1002.8
20190216043003 29 181 2.0 3.0 0.00 0.00 0.00 100 1002.8
20190216042504 30 181 2.0 3.0 0.00 0.00 0.00 100 1002.8
20190216042004 30 181 2.0 3.0 0.00 0.00 0.00 100 1002.8
20190216041503 30 181 2.0 3.0 0.00 0.00 0.00 100 1002.8
20190216041003 30 181 1.0 3.0 0.00 0.00 0.00 100 1002.8
20190216040504 30 181 1.0 3.0 0.00 0.00 0.00 100 1002.8
20190216040003 30 181 1.0 2.0 0.00 0.00 0.00 100 1002.8
20190216035503 30 181 1.0 2.0 0.00 0.00 0.00 100 1002.8
20190216035004 30 181 0.0 2.0 0.00 0.00 0.00 100 1002.8
20190216034504 31 181 0.0 2.0 0.00 0.00 0.00 100 1002.8
20190216034003 31 181 2.0 1.0 0.00 0.00 0.00 100 1002.8
20190216033504 31 181 2.0 1.0 0.00 0.00 0.00 100 1002.8
20190216033004 31 181 2.0 1.0 0.00 0.00 0.00 100 1002.8
20190216032503 31 181 2.0 1.0 0.00 0.00 0.00 100 1002.8
20190216032003 31 181 2.0 1.0 0.00 0.00 0.00 100 1002.8
20190216031504 31 181 2.0 1.0 0.00 0.00 0.00 100 1002.8
20190216031003 31 181 2.0 1.0 0.00 0.00 0.00 100 1002.8
20190216030503 31 181 2.0 1.0 0.00 0.00 0.00 100 1002.8
20190216030004 31 181 2.0 1.0 0.00 0.00 0.00 100 1002.8
20190216025504 31 181 2.0 1.0 0.00 0.00 0.00 100 1002.8
20190216025003 31 181 2.0 1.0 0.00 0.00 0.00 100 1002.8
20190216024503 32 181 2.0 1.0 0.00 0.00 0.00 100 1002.8
20190216024004 32 181 2.0 1.0 0.00 0.00 0.00 100 1002.8
20190216023504 32 181 2.0 1.0 0.00 0.00 0.00 100 1002.8
20190216023003 32 181 2.0 1.0 0.00 0.00 0.00 100 1002.8
20190216022504 32 181 2.0 1.0 0.00 0.00 0.00 100 1002.8
20190216022003 32 181 2.0 1.0 0.00 0.00 0.00 100 1002.8
20190216021503 32 181 2.0 1.0 0.00 0.00 0.00 100 1002.8
20190216021003 32 181 2.0 1.0 0.00 0.00 0.00 100 1002.8
20190216020504 32 181 2.0 1.0 0.00 0.00 0.00 100 1001.7
20190216020004 32 181 2.0 1.0 0.00 0.00 0.00 100 1001.7
20190216015503 32 181 2.0 1.0 0.00 0.00 0.00 100 1001.7
20190216015004 32 181 2.0 1.0 0.00 0.00 0.00 100 1001.7
20190216014504 32 181 2.0 1.0 0.00 0.00 0.00 100 1001.7
20190216014003 32 181 2.0 1.0 0.00 0.00 0.00 100 1001.7
20190216013504 32 181 2.0 1.0 0.00 0.00 0.00 100 1000.7
20190216013004 32 181 2.0 1.0 0.00 0.00 0.00 100 1000.7
20190216012503 32 181 2.0 1.0 0.00 0.00 0.00 100 1000.7
20190216012003 33 181 2.0 1.0 0.00 0.00 0.00 100 1001.7
20190216011504 33 181 2.0 1.0 0.00 0.00 0.00 100 1001.7
20190216011003 33 181 2.0 1.0 0.00 0.00 0.00 100 1000.7
20190216010503 34 181 2.0 1.0 0.00 0.00 0.00 100 1000.7
20190216010004 34 181 2.0 1.0 0.00 0.00 0.00 100 1000.7
20190216005503 35 181 2.0 1.0 0.00 0.00 0.00 100 1000.7
20190216005003 35 186 2.0 2.0 0.00 0.00 0.00 100 1000.7
20190216004504 35 237 2.0 2.0 0.00 0.00 0.00 100 1000.7
20190216004003 34 254 1.0 2.0 0.00 0.00 0.00 100 1000.7
20190216003503 34 248 1.0 3.0 0.00 0.00 0.00 100 1000.7
20190216003003 34 275 1.0 3.0 0.00 0.00 0.00 100 1000.7
20190216002504 34 290 2.0 3.0 0.00 0.00 0.00 100 999.7
20190216002003 34 292 1.0 3.0 0.00 0.00 0.00 100 999.7
20190216001503 34 305 1.0 3.0 0.00 0.00 0.00 100 999.7
20190216001004 33 275 1.0 1.0 0.00 0.00 0.00 100 1000.7
20190216000503 33 254 1.0 1.0 0.00 0.00 0.00 100 1000.7
20190216000005 33 264 2.0 2.0 0.00 0.00 0.00 100 1000.7
20190215235504 33 269 1.0 2.0 0.00 0.00 0.00 100 1000.7
20190215235003 33 303 0.0 2.0 0.00 0.00 0.00 100 1000.7
20190215234503 33 248 1.0 2.0 0.00 0.00 0.00 100 1000.7
20190215234004 33 248 1.0 2.0 0.00 0.00 0.00 100 1000.7
20190215233504 33 252 1.0 2.0 0.00 0.00 0.00 100 1000.7
20190215233003 33 267 0.0 2.0 0.00 0.00 0.00 100 1000.7
20190215232503 33 268 0.0 2.0 0.00 0.00 0.00 100 1000.7
20190215232003 33 248 1.0 2.0 0.00 0.00 0.00 100 1000.7
20190215231503 33 248 1.0 2.0 0.00 0.00 0.00 100 1000.7
20190215231003 33 248 0.0 2.0 0.00 0.00 0.00 100 1000.7
20190215230503 33 248 0.0 1.0 0.00 0.00 0.00 100 1000.7
20190215230003 33 248 1.0 2.0 0.00 0.00 0.00 100 1000.7
20190215225504 33 248 1.0 2.0 0.00 0.00 0.00 100 1000.7
20190215225004 33 248 0.0 2.0 0.00 0.00 0.00 100 1000.7
20190215224503 33 248 1.0 2.0 0.00 0.00 0.00 100 1000.7
20190215224004 33 256 1.0 3.0 0.00 0.00 0.00 100 1000.7
20190215223503 33 255 2.0 3.0 0.00 0.00 0.00 100 1000.7
20190215223003 33 253 1.0 3.0 0.00 0.00 0.00 100 1000.7
20190215222503 33 258 1.0 2.0 0.00 0.00 0.00 100 1000.7
20190215222003 33 251 1.0 2.0 0.00 0.00 0.00 100 1000.7
20190215221503 33 259 2.0 2.0 0.00 0.00 0.00 100 1000.7
20190215221003 33 265 1.0 3.0 0.00 0.00 0.00 100 1000.7
20190215220503 33 252 1.0 3.0 0.00 0.00 0.00 100 1000.7
20190215220003 33 255 1.0 2.0 0.00 0.00 0.00 100 1000.7
20190215215504 33 254 1.0 2.0 0.00 0.00 0.00 100 1000.7
20190215215002 33 258 2.0 2.0 0.00 0.00 0.00 100 1000.7
20190215214503 33 272 2.0 2.0 0.00 0.00 0.00 100 1000.7
20190215214003 33 278 1.0 2.0 0.00 0.00 0.00 100 1000.7
20190215213503 33 270 2.0 2.0 0.00 0.00 0.00 99 1001.7
20190215213003 33 270 2.0 3.0 0.00 0.00 0.00 100 1001.7
20190215212503 33 274 1.0 3.0 0.00 0.00 0.00 99 1001.7
20190215212003 33 248 1.0 2.0 0.00 0.00 0.00 98 1001.7
20190215211503 33 260 1.0 2.0 0.00 0.00 0.00 97 1001.7
20190215211003 34 272 1.0 2.0 0.00 0.00 0.00 96 1001.7
20190215210503 34 292 1.0 1.0 0.00 0.00 0.00 93 1001.7
20190215210004 34 281 1.0 1.0 0.00 0.00 0.00 93 1001.7
20190215205503 34 266 1.0 1.0 0.00 0.00 0.00 92 1001.7
20190215205003 34 248 0.0 1.0 0.00 0.00 0.00 92 1001.7
20190215204505 34 350 0.0 3.0 0.00 0.00 0.00 91 1001.7
20190215204003 34 23 1.0 3.0 0.00 0.00 0.00 91 1001.7
20190215203503 34 8 0.0 3.0 0.00 0.00 0.00 91 1001.7
20190215203003 34 318 1.0 2.0 0.00 0.00 0.00 91 1001.7
20190215202503 34 271 1.0 2.0 0.00 0.00 0.00 90 1001.7
20190215202003 34 280 1.0 2.0 0.00 0.00 0.00 88 1002.8
20190215201503 34 292 1.0 2.0 0.00 0.00 0.00 88 1002.8
20190215201003 34 299 2.0 2.0 0.00 0.00 0.00 87 1002.8
20190215200503 35 318 1.0 2.0 0.00 0.00 0.00 85 1002.8
20190215200003 35 337 0.0 2.0 0.00 0.00 0.00 85 1002.8
20190215195503 35 270 0.0 2.0 0.00 0.00 0.00 85 1002.8
20190215195003 35 272 1.0 2.0 0.00 0.00 0.00 84 1002.8
20190215194503 35 256 1.0 2.0 0.00 0.00 0.00 82 1002.8
20190215194003 36 134 0.0 2.0 0.00 0.00 0.00 81 1002.8
20190215193503 36 90 0.0 2.0 0.00 0.00 0.00 81 1002.8
20190215193003 36 96 0.0 4.0 0.00 0.00 0.00 80 1002.8
20190215192503 36 112 1.0 4.0 0.00 0.00 0.00 79 1002.8
20190215192003 36 114 2.0 4.0 0.00 0.00 0.00 79 1002.8
20190215191503 37 119 2.0 2.0 0.00 0.00 0.00 76 1002.8
20190215191003 37 162 2.0 2.0 0.00 0.00 0.00 75 1002.8
20190215190503 38 110 3.0 4.0 0.00 0.00 0.00 74 1002.8
20190215190004 39 97 4.0 4.0 0.00 0.00 0.00 75 1002.8
20190215185503 39 202 4.0 6.0 0.00 0.00 0.00 75 1002.8
20190215185003 39 238 3.0 6.0 0.00 0.00 0.00 75 1003.8
20190215184503 39 263 2.0 6.0 0.00 0.00 0.00 76 1003.8
20190215184003 38 293 2.0 3.0 0.00 0.00 0.00 79 1003.8
20190215183503 37 167 3.0 3.0 0.00 0.00 0.00 81 1003.8
20190215183003 36 114 3.0 3.0 0.00 0.00 0.00 84 1003.8
20190215182503 36 118 3.0 3.0 0.00 0.00 0.00 84 1003.8
20190215182003 35 165 3.0 3.0 0.00 0.00 0.00 85 1004.9
20190215181503 34 177 3.0 3.0 0.00 0.00 0.00 86 1004.9
20190215181004 34 134 2.0 3.0 0.00 0.00 0.00 87 1004.9
20190215180503 34 102 3.0 6.0 0.00 0.00 0.00 87 1004.9
20190215180003 33 109 4.0 6.0 0.00 0.00 0.00 88 1004.9
20190215175504 33 135 4.0 4.0 0.00 0.00 0.00 88 1004.9
20190215175003 33 147 3.0 4.0 0.00 0.00 0.00 88 1005.9
20190215174503 33 164 3.0 8.0 0.00 0.00 0.00 90 1005.9
20190215174004 33 167 4.0 8.0 0.00 0.00 0.00 90 1005.9
20190215173503 32 177 3.0 8.0 0.00 0.00 0.00 90 1005.9
20190215173003 32 172 4.0 5.0 0.00 0.00 0.00 90 1005.9
20190215172503 32 167 4.0 5.0 0.00 0.00 0.00 90 1005.9
20190215172003 32 146 3.0 4.0 0.00 0.00 0.00 90 1005.9
20190215171503 32 160 4.0 4.0 0.00 0.00 0.00 90 1005.9
20190215171003 32 246 5.0 4.0 0.00 0.00 0.00 91 1005.9
20190215170503 32 222 4.0 5.0 0.00 0.00 0.00 92 1005.9
20190215170003 31 189 4.0 6.0 0.00 0.00 0.00 92 1005.9
20190215165503 31 178 4.0 6.0 0.00 0.00 0.00 92 1005.9
20190215165004 31 124 4.0 5.0 0.00 0.00 0.00 92 1007.0
20190215164504 31 70 4.0 5.0 0.00 0.00 0.00 93 1007.0
20190215164003 31 83 5.0 4.0 0.00 0.00 0.00 93 1007.0
20190215163502 30 147 5.0 4.0 0.00 0.00 0.00 93 1005.9
20190215163003 30 150 4.0 3.0 0.00 0.00 0.00 93 1005.9
20190215162503 30 113 4.0 6.0 0.00 0.00 0.00 92 1005.9
20190215162003 30 146 5.0 6.0 0.00 0.00 0.00 91 1007.0
20190215161503 30 185 3.0 5.0 0.00 0.00 0.00 91 1007.0
20190215161003 30 110 4.0 9.0 0.00 0.00 0.00 90 1007.0
20190215160503 30 94 5.0 9.0 0.00 0.00 0.00 90 1008.0
20190215160003 30 143 4.0 7.0 0.00 0.00 0.00 88 1008.0
20190215155503 30 166 3.0 7.0 0.00 0.00 0.00 87 1008.0
20190215155003 30 147 3.0 7.0 0.00 0.00 0.00 86 1009.0